Location: Cul de Sac
(18.0387°N, 63.0654°W)
Time: 08:38:29
(UTC+00:00)

CSL-04 Rocket - Pass Details

Date: 29 October 2020
Orbit: 805 x 861 km, 98.9° (Epoch: 28 November)

Event Time Altitude Azimuth Distance (km) Brightness Sun altitude
Rises 23:29:52 0° 165° (SSE) 3,422 6.8 -26.2°
Reaches altitude 10° 23:32:14 10° 165° (SSE) 2,488 6.0 -26.8°
Enters shadow 23:33:20 16° 165° (SSE) 2,068 5.6 -27.0°
Exits shadow 23:39:11 53° 352° (N) 1,046 4.1 -28.4°
Drops below altitude 10° 23:43:20 10° 349° (NNW) 2,486 6.2 -29.4°
Sets 23:45:42 0° 349° (NNW) 3,418 6.9 -30.0°
